Início
Estação Aeroclube
Estação São Gotardo
Temperatura
Umidade
Pressão Atmosférica
Vento
Precipitação
Configuração do gráfico
Período
v
     
 
v
   
Aplicar
Linhas e valores
etiquetasséries
The Temperatura média no período chart showing Mínima series, Máxima series, Média series, Sensação térmica series.
   
Hora
Temperatura média
Temperatura máxima
Temperatura mínima
Sensação térmica
Data: 25/05/2020
 08:00:009,079,278,766,42
 07:00:008,798,888,716,23
 06:00:008,999,188,876,4
 05:00:009,169,199,116,87
 04:00:009,29,369,136,63
 03:00:009,49,529,37,19
 02:00:009,59,69,447,7
 01:00:009,599,689,527,31
 00:00:009,539,69,447,21
Data: 24/05/2020
 23:00:009,449,529,367,44
 22:00:009,449,929,37,61
 21:00:0010,2710,689,768,57
 20:00:0010,7510,8410,639,03
 19:00:0010,7910,8310,668,92
 18:00:0011,0511,2410,669,53
 17:00:0011,3511,5911,139,69
 16:00:0011,6911,8611,4910,04
 15:00:0011,8712,3211,749,94
 14:00:0012,1812,511,7410,64
 13:00:0011,8412,1611,4910,08
 12:00:0011,4611,9111,169,92
 11:00:0011,1511,3710,899,77
 10:00:0010,911,1910,589,33
 09:00:0010,6810,8310,589,1
 08:00:0010,4410,759,678,45
 07:00:0010,3310,510,238,71
 06:00:0010,4910,5810,368,79
 05:00:0010,6110,7510,58,65
 04:00:0010,7810,9110,668,78
 03:00:0010,9110,9910,849,03
 02:00:0011,1211,4910,919,11
 01:00:0011,5611,7411,499,47
 00:00:0011,8511,9311,7410,04
Data: 23/05/2020 (Continua na próxima página)
 23:00:0011,911,9911,7410,12
 22:00:0011,7411,7811,6610,35
 21:00:0011,4911,711,289,74
 20:00:0011,1611,3310,499,59
 19:00:0010,9111,0710,499,54
 18:00:0010,6310,7710,59,13
 17:00:0010,5810,6610,59
 16:00:0010,610,6910,578,97
 15:00:0010,7910,9510,629,38
 14:00:0010,8911,1610,59,15
 13:00:0010,5310,9110,258,46
 12:00:0010,811,3310,338,7
 11:00:0011,1711,4910,838,98
 10:00:0010,8811,1110,669,3
Página 1 de 4 (185 itens)
Anterior
[1]
2
3
4
Próxima